Time,TemperatureF,DewpointF,PressureIn,WindDirection,WindDirectionDegrees,WindSpeedMPH,WindSpeedGustMPH,Humidity,HourlyPrecipIn,Conditions,Clouds,dailyrainin,SoftwareType,DateUTC
2013-04-30 00:00:00,57.7,53.5,29.92,SSW,192,0.0,0.0,86,0.00,,CLR,0.00,VWS V14.00,2013-04-30 04:00:00,
2013-04-30 00:01:00,57.7,53.5,29.92,SSW,192,0.0,0.0,86,0.00,,CLR,0.00,VWS V14.00,2013-04-30 04:01:00,
2013-04-30 00:06:00,57.6,53.5,29.92,SSW,192,0.0,2.0,86,0.00,,CLR,0.00,VWS V14.00,2013-04-30 04:06:00,
2013-04-30 00:11:00,57.6,53.5,29.92,South,188,0.0,4.0,86,0.00,,CLR,0.00,VWS V14.00,2013-04-30 04:11:00,
2013-04-30 00:16:00,57.6,53.8,29.93,SSW,213,1.0,4.0,87,0.00,,CLR,0.00,VWS V14.00,2013-04-30 04:16:00,
2013-04-30 00:21:00,57.6,53.8,29.93,SSW,204,0.0,3.0,87,0.00,,CLR,0.00,VWS V14.00,2013-04-30 04:21:00,
2013-04-30 00:26:00,57.7,53.9,29.92,SSW,204,0.0,3.0,87,0.00,,CLR,0.00,VWS V14.00,2013-04-30 04:26:00,
2013-04-30 00:31:00,57.6,53.8,29.92,SSW,204,0.0,0.0,87,0.00,,CLR,0.00,VWS V14.00,2013-04-30 04:31:00,
2013-04-30 00:36:00,57.5,53.7,29.92,SSW,204,1.0,1.0,87,0.00,,CLR,0.00,VWS V14.00,2013-04-30 04:36:00,
2013-04-30 00:41:00,57.4,53.6,29.93,SSW,203,0.0,0.0,87,0.00,,CLR,0.00,VWS V14.00,2013-04-30 04:41:00,
2013-04-30 00:46:00,57.3,53.5,29.93,SSW,203,0.0,0.0,87,0.00,,CLR,0.00,VWS V14.00,2013-04-30 04:46:00,
2013-04-30 00:51:00,57.2,53.4,29.93,SSW,203,0.0,3.0,87,0.00,,CLR,0.00,VWS V14.00,2013-04-30 04:51:00,
2013-04-30 00:56:00,57.1,53.3,29.93,SSW,203,0.0,3.0,87,0.00,,CLR,0.00,VWS V14.00,2013-04-30 04:56:00,
2013-04-30 01:01:00,57.0,53.2,29.93,SSW,203,0.0,0.0,87,0.00,,CLR,0.00,VWS V14.00,2013-04-30 05:01:00,
2013-04-30 01:06:00,56.9,53.1,29.93,SSW,203,0.0,0.0,87,0.00,,CLR,0.00,VWS V14.00,2013-04-30 05:06:00,
2013-04-30 01:11:00,56.9,53.1,29.93,SSW,203,0.0,0.0,87,0.00,,CLR,0.00,VWS V14.00,2013-04-30 05:11:00,
2013-04-30 01:16:00,56.9,53.1,29.93,SSW,203,0.0,0.0,87,0.00,,CLR,0.00,VWS V14.00,2013-04-30 05:16:00,
2013-04-30 01:21:00,56.8,53.3,29.93,SSW,203,0.0,0.0,88,0.00,,CLR,0.00,VWS V14.00,2013-04-30 05:21:00,
2013-04-30 01:26:00,56.8,53.3,29.93,SSW,199,0.0,5.0,88,0.00,,CLR,0.00,VWS V14.00,2013-04-30 05:26:00,
2013-04-30 01:31:00,56.8,53.3,29.93,SSW,199,0.0,0.0,88,0.00,,CLR,0.00,VWS V14.00,2013-04-30 05:31:00,
2013-04-30 01:36:00,56.7,52.9,29.94,SSW,199,0.0,0.0,87,0.00,,CLR,0.00,VWS V14.00,2013-04-30 05:36:00,
2013-04-30 01:41:00,56.5,52.7,29.94,South,180,0.0,4.0,87,0.00,,CLR,0.00,VWS V14.00,2013-04-30 05:41:00,
2013-04-30 01:46:00,56.3,52.8,29.93,South,180,2.0,4.0,88,0.00,,CLR,0.00,VWS V14.00,2013-04-30 05:46:00,
2013-04-30 01:51:00,56.3,52.8,29.94,South,179,0.0,1.0,88,0.00,,CLR,0.00,VWS V14.00,2013-04-30 05:51:00,
2013-04-30 01:56:00,56.2,52.7,29.94,South,179,0.0,1.0,88,0.00,,CLR,0.00,VWS V14.00,2013-04-30 05:56:00,
2013-04-30 02:01:00,56.2,52.7,29.94,South,179,1.0,3.0,88,0.00,,CLR,0.00,VWS V14.00,2013-04-30 06:01:00,
2013-04-30 02:06:00,56.2,52.7,29.95,South,186,0.0,3.0,88,0.00,,CLR,0.00,VWS V14.00,2013-04-30 06:06:00,
2013-04-30 02:11:00,56.2,52.7,29.95,South,186,0.0,1.0,88,0.00,,CLR,0.00,VWS V14.00,2013-04-30 06:11:00,
2013-04-30 02:16:00,56.2,52.7,29.95,South,186,0.0,2.0,88,0.00,,CLR,0.00,VWS V14.00,2013-04-30 06:16:00,
2013-04-30 02:21:00,56.2,52.7,29.95,South,186,3.0,3.0,88,0.00,,CLR,0.00,VWS V14.00,2013-04-30 06:21:00,
2013-04-30 02:26:00,56.2,52.7,29.95,South,186,0.0,3.0,88,0.00,,CLR,0.00,VWS V14.00,2013-04-30 06:26:00,
2013-04-30 02:31:00,56.1,52.6,29.94,South,186,0.0,0.0,88,0.00,,CLR,0.00,VWS V14.00,2013-04-30 06:31:00,
2013-04-30 02:36:00,56.1,52.6,29.94,South,186,0.0,2.0,88,0.00,,CLR,0.00,VWS V14.00,2013-04-30 06:36:00,
2013-04-30 02:41:00,56.1,52.6,29.94,South,186,0.0,1.0,88,0.00,,CLR,0.00,VWS V14.00,2013-04-30 06:41:00,
2013-04-30 02:46:00,56.0,52.5,29.95,South,184,0.0,5.0,88,0.00,,CLR,0.00,VWS V14.00,2013-04-30 06:46:00,
2013-04-30 02:51:00,56.0,52.5,29.95,South,184,0.0,3.0,88,0.00,,CLR,0.00,VWS V14.00,2013-04-30 06:51:00,
2013-04-30 02:56:00,56.0,52.5,29.94,SSW,199,0.0,3.0,88,0.00,,CLR,0.00,VWS V14.00,2013-04-30 06:56:00,
2013-04-30 03:01:00,55.9,52.4,29.94,SSW,198,0.0,0.0,88,0.00,,SCT120,0.00,VWS V14.00,2013-04-30 07:01:00,
2013-04-30 03:05:00,55.8,52.3,29.94,SSW,198,0.0,3.0,88,0.00,,SCT120,0.00,VWS V14.00,2013-04-30 07:05:00,
2013-04-30 03:10:00,55.7,52.2,29.94,SSW,198,1.0,1.0,88,0.00,,SCT120,0.00,VWS V14.00,2013-04-30 07:10:00,
2013-04-30 03:15:00,55.6,52.1,29.94,SSW,198,0.0,3.0,88,0.00,,SCT120,0.00,VWS V14.00,2013-04-30 07:15:00,
2013-04-30 03:20:00,55.4,51.9,29.94,SSW,192,0.0,2.0,88,0.00,,SCT120,0.00,VWS V14.00,2013-04-30 07:20:00,
2013-04-30 03:25:00,55.3,51.8,29.94,South,186,2.0,4.0,88,0.00,,SCT120,0.00,VWS V14.00,2013-04-30 07:25:00,
2013-04-30 03:30:00,55.2,51.7,29.94,SSW,203,0.0,3.0,88,0.00,,SCT120,0.00,VWS V14.00,2013-04-30 07:30:00,
2013-04-30 03:35:00,55.2,52.0,29.94,SSW,205,0.0,9.0,89,0.00,,SCT120,0.00,VWS V14.00,2013-04-30 07:35:00,
2013-04-30 03:40:00,55.1,51.6,29.94,SSW,197,0.0,0.0,88,0.00,,SCT120,0.00,VWS V14.00,2013-04-30 07:40:00,
2013-04-30 03:45:00,55.0,51.8,29.94,SSW,196,0.0,3.0,89,0.00,,SCT120,0.00,VWS V14.00,2013-04-30 07:45:00,
2013-04-30 03:50:00,54.9,51.4,29.94,SSW,196,0.0,1.0,88,0.00,,SCT120,0.00,VWS V14.00,2013-04-30 07:50:00,
2013-04-30 03:55:00,54.8,51.6,29.94,SSE,148,0.0,4.0,89,0.00,,SCT120,0.00,VWS V14.00,2013-04-30 07:55:00,
2013-04-30 04:00:00,54.8,51.6,29.95,SSW,196,0.0,4.0,89,0.00,,FEW120,0.00,VWS V14.00,2013-04-30 08:00:00,
2013-04-30 04:05:00,54.8,51.6,29.95,SSW,196,0.0,4.0,89,0.00,,FEW120,0.00,VWS V14.00,2013-04-30 08:05:00,
2013-04-30 04:10:00,54.9,51.7,29.96,SSW,196,0.0,2.0,89,0.00,,FEW120,0.00,VWS V14.00,2013-04-30 08:10:00,
2013-04-30 04:15:00,54.8,51.6,29.96,SSW,197,0.0,3.0,89,0.00,,FEW120,0.00,VWS V14.00,2013-04-30 08:15:00,
2013-04-30 04:20:00,54.7,51.5,29.96,SSW,196,0.0,1.0,89,0.00,,FEW120,0.00,VWS V14.00,2013-04-30 08:20:00,
2013-04-30 04:25:00,54.5,51.3,29.96,SSW,197,0.0,1.0,89,0.00,,FEW120,0.00,VWS V14.00,2013-04-30 08:25:00,
2013-04-30 04:30:00,54.3,51.1,29.96,South,190,0.0,2.0,89,0.00,,FEW120,0.00,VWS V14.00,2013-04-30 08:30:00,
2013-04-30 04:35:00,54.1,50.9,29.95,South,190,0.0,2.0,89,0.00,,FEW120,0.00,VWS V14.00,2013-04-30 08:35:00,
2013-04-30 04:40:00,54.0,50.8,29.95,South,190,0.0,3.0,89,0.00,,FEW120,0.00,VWS V14.00,2013-04-30 08:40:00,
2013-04-30 04:45:00,53.8,50.6,29.95,South,190,0.0,3.0,89,0.00,,FEW120,0.00,VWS V14.00,2013-04-30 08:45:00,
2013-04-30 04:50:00,53.7,50.5,29.95,South,190,0.0,2.0,89,0.00,,FEW120,0.00,VWS V14.00,2013-04-30 08:50:00,
2013-04-30 04:55:00,53.6,50.7,29.95,South,190,0.0,2.0,90,0.00,,FEW120,0.00,VWS V14.00,2013-04-30 08:55:00,
2013-04-30 05:00:00,53.5,50.6,29.95,South,190,0.0,1.0,90,0.00,,FEW100,0.00,VWS V14.00,2013-04-30 09:00:00,
2013-04-30 05:05:00,53.4,50.5,29.95,South,190,0.0,1.0,90,0.00,,FEW100,0.00,VWS V14.00,2013-04-30 09:05:00,
2013-04-30 05:10:00,53.3,50.5,29.95,SSW,200,0.0,1.0,90,0.00,,FEW100,0.00,VWS V14.00,2013-04-30 09:10:00,
2013-04-30 05:15:00,53.2,50.3,29.96,South,186,0.0,4.0,90,0.00,,FEW100,0.00,VWS V14.00,2013-04-30 09:15:00,
2013-04-30 05:20:00,53.2,50.3,29.96,South,181,0.0,0.0,90,0.00,,FEW100,0.00,VWS V14.00,2013-04-30 09:20:00,
2013-04-30 05:25:00,53.1,50.2,29.96,South,181,0.0,2.0,90,0.00,,FEW100,0.00,VWS V14.00,2013-04-30 09:25:00,
2013-04-30 05:30:00,53.0,50.5,29.96,South,188,0.0,0.0,91,0.00,,FEW100,0.00,VWS V14.00,2013-04-30 09:30:00,
2013-04-30 05:35:00,52.9,50.3,29.95,South,188,1.0,2.0,91,0.00,,FEW100,0.00,VWS V14.00,2013-04-30 09:35:00,
2013-04-30 05:40:00,52.8,50.2,29.95,South,187,0.0,2.0,91,0.00,,FEW100,0.00,VWS V14.00,2013-04-30 09:40:00,
2013-04-30 05:45:00,52.8,50.2,29.96,South,188,0.0,2.0,91,0.00,,FEW100,0.00,VWS V14.00,2013-04-30 09:45:00,
2013-04-30 05:50:00,52.7,50.2,29.95,South,187,0.0,0.0,91,0.00,,FEW100,0.00,VWS V14.00,2013-04-30 09:50:00,
2013-04-30 05:55:00,52.7,50.2,29.95,South,188,0.0,2.0,91,0.00,,FEW100,0.00,VWS V14.00,2013-04-30 09:55:00,
2013-04-30 06:00:00,52.6,50.0,29.95,South,188,0.0,0.0,91,0.00,,,0.00,VWS V14.00,2013-04-30 10:00:00,
2013-04-30 06:05:00,52.5,50.0,29.96,SW,229,0.0,3.0,91,0.00,,,0.00,VWS V14.00,2013-04-30 10:05:00,
2013-04-30 06:10:00,52.4,49.8,29.95,SW,227,0.0,0.0,91,0.00,,,0.00,VWS V14.00,2013-04-30 10:10:00,
2013-04-30 06:15:00,52.3,49.8,29.95,SW,227,0.0,2.0,91,0.00,,,0.00,VWS V14.00,2013-04-30 10:15:00,
2013-04-30 06:20:00,52.3,49.8,29.96,SW,227,0.0,0.0,91,0.00,,,0.00,VWS V14.00,2013-04-30 10:20:00,
2013-04-30 06:25:00,52.3,50.0,29.96,SW,227,0.0,2.0,92,0.00,,,0.00,VWS V14.00,2013-04-30 10:25:00,
2013-04-30 06:30:00,52.2,50.0,29.96,SW,221,0.0,2.0,92,0.00,,,0.00,VWS V14.00,2013-04-30 10:30:00,
2013-04-30 06:35:00,52.3,50.0,29.95,SW,221,0.0,2.0,92,0.00,,,0.00,VWS V14.00,2013-04-30 10:35:00,
2013-04-30 06:40:00,52.2,50.0,29.95,SW,221,0.0,1.0,92,0.00,,,0.00,VWS V14.00,2013-04-30 10:40:00,
2013-04-30 06:45:00,52.2,50.0,29.96,SSE,163,0.0,3.0,92,0.00,,,0.00,VWS V14.00,2013-04-30 10:45:00,
2013-04-30 06:50:00,52.3,50.0,29.96,SSE,161,0.0,3.0,92,0.00,,,0.00,VWS V14.00,2013-04-30 10:50:00,
2013-04-30 06:55:00,52.3,50.0,29.96,SSE,163,0.0,3.0,92,0.00,,,0.00,VWS V14.00,2013-04-30 10:55:00,
2013-04-30 07:00:00,52.4,50.2,29.95,SSE,159,0.0,0.0,92,0.00,,,0.00,VWS V14.00,2013-04-30 11:00:00,
2013-04-30 07:05:00,52.4,50.2,29.96,SE,146,0.0,3.0,92,0.00,,,0.00,VWS V14.00,2013-04-30 11:05:00,
2013-04-30 07:10:00,52.5,50.2,29.96,SE,145,0.0,0.0,92,0.00,,,0.00,VWS V14.00,2013-04-30 11:10:00,
2013-04-30 07:15:00,52.6,50.3,29.96,SSE,150,0.0,1.0,92,0.00,,,0.00,VWS V14.00,2013-04-30 11:15:00,
2013-04-30 07:20:00,52.8,50.5,29.97,SSW,199,0.0,3.0,92,0.00,,,0.00,VWS V14.00,2013-04-30 11:20:00,
2013-04-30 07:25:00,52.9,50.6,29.97,SSW,202,0.0,5.0,92,0.00,,,0.00,VWS V14.00,2013-04-30 11:25:00,
2013-04-30 07:30:00,53.1,51.1,29.98,SSW,202,0.0,1.0,93,0.00,,,0.00,VWS V14.00,2013-04-30 11:30:00,
2013-04-30 07:35:00,53.3,51.0,29.98,SSW,202,0.0,1.0,92,0.00,,,0.00,VWS V14.00,2013-04-30 11:35:00,
2013-04-30 07:40:00,53.5,51.2,29.98,SSW,202,0.0,0.0,92,0.00,,,0.00,VWS V14.00,2013-04-30 11:40:00,
2013-04-30 07:45:00,53.7,51.7,29.99,SW,234,2.0,6.0,93,0.00,,,0.00,VWS V14.00,2013-04-30 11:45:00,
2013-04-30 07:50:00,54.0,51.7,29.99,SSW,203,0.0,4.0,92,0.00,,,0.00,VWS V14.00,2013-04-30 11:50:00,
2013-04-30 07:55:00,54.3,52.0,29.99,South,178,0.0,5.0,92,0.00,,,0.00,VWS V14.00,2013-04-30 11:55:00,
2013-04-30 08:00:00,54.6,52.3,29.99,South,173,0.0,5.0,92,0.00,,,0.00,VWS V14.00,2013-04-30 12:00:00,
2013-04-30 08:05:00,55.0,52.7,30.00,SSW,209,2.0,6.0,92,0.00,,,0.00,VWS V14.00,2013-04-30 12:05:00,
2013-04-30 08:10:00,55.2,52.6,30.00,SSW,205,0.0,6.0,91,0.00,,,0.00,VWS V14.00,2013-04-30 12:10:00,
2013-04-30 08:15:00,55.6,53.0,30.00,SSW,213,0.0,6.0,91,0.00,,,0.00,VWS V14.00,2013-04-30 12:15:00,
2013-04-30 08:20:00,56.2,53.3,30.00,SSW,198,0.0,5.0,90,0.00,,,0.00,VWS V14.00,2013-04-30 12:20:00,
2013-04-30 08:25:00,56.8,53.9,29.99,South,179,0.0,5.0,90,0.00,,,0.00,VWS V14.00,2013-04-30 12:25:00,
2013-04-30 08:30:00,57.2,54.0,29.99,SW,230,1.0,7.0,89,0.00,,,0.00,VWS V14.00,2013-04-30 12:30:00,
2013-04-30 08:35:00,57.6,54.1,30.00,SSW,210,0.0,7.0,88,0.00,,,0.00,VWS V14.00,2013-04-30 12:35:00,
2013-04-30 08:40:00,58.1,54.3,30.00,SSW,207,5.0,6.0,87,0.00,,,0.00,VWS V14.00,2013-04-30 12:40:00,
2013-04-30 08:45:00,58.6,54.4,30.00,SE,146,0.0,9.0,86,0.00,,,0.00,VWS V14.00,2013-04-30 12:45:00,
2013-04-30 08:50:00,59.0,54.5,30.00,SSE,158,5.0,5.0,85,0.00,,,0.00,VWS V14.00,2013-04-30 12:50:00,
2013-04-30 08:55:00,59.6,54.8,30.01,SSW,201,2.0,6.0,84,0.00,,,0.00,VWS V14.00,2013-04-30 12:55:00,
2013-04-30 09:00:00,59.8,54.6,30.01,SSW,202,3.0,3.0,83,0.00,,CLR,0.00,VWS V14.00,2013-04-30 13:00:00,
2013-04-30 09:05:00,60.2,54.7,30.01,SSW,209,1.0,10.0,82,0.00,,CLR,0.00,VWS V14.00,2013-04-30 13:05:00,
2013-04-30 09:10:00,60.7,55.2,30.01,SSE,160,0.0,3.0,82,0.00,,CLR,0.00,VWS V14.00,2013-04-30 13:10:00,
2013-04-30 09:15:00,61.0,55.1,30.01,SSW,192,0.0,12.0,81,0.00,,CLR,0.00,VWS V14.00,2013-04-30 13:15:00,
2013-04-30 09:20:00,61.4,54.8,30.01,South,173,0.0,11.0,79,0.00,,CLR,0.00,VWS V14.00,2013-04-30 13:20:00,
2013-04-30 09:25:00,61.8,54.9,30.01,SE,138,0.0,11.0,78,0.00,,CLR,0.00,VWS V14.00,2013-04-30 13:25:00,
2013-04-30 09:30:00,62.4,55.5,30.01,SSW,205,0.0,3.0,78,0.00,,CLR,0.00,VWS V14.00,2013-04-30 13:30:00,
2013-04-30 09:35:00,62.9,55.6,30.01,SSW,200,3.0,10.0,77,0.00,,CLR,0.00,VWS V14.00,2013-04-30 13:35:00,
2013-04-30 09:40:00,63.1,55.4,30.01,SSW,192,1.0,6.0,76,0.00,,CLR,0.00,VWS V14.00,2013-04-30 13:40:00,
2013-04-30 09:45:00,63.2,55.2,30.02,SW,222,2.0,11.0,75,0.00,,CLR,0.00,VWS V14.00,2013-04-30 13:45:00,
2013-04-30 09:50:00,63.4,55.7,30.02,SSW,211,2.0,6.0,76,0.00,,CLR,0.00,VWS V14.00,2013-04-30 13:50:00,
2013-04-30 09:55:00,63.7,55.6,30.02,WNW,287,5.0,11.0,75,0.00,,CLR,0.00,VWS V14.00,2013-04-30 13:55:00,
2013-04-30 10:00:00,63.9,55.1,30.02,SSW,200,0.0,7.0,73,0.00,,CLR,0.00,VWS V14.00,2013-04-30 14:00:00,
2013-04-30 10:05:00,64.2,56.1,30.01,South,191,0.0,7.0,75,0.00,,CLR,0.00,VWS V14.00,2013-04-30 14:05:00,
2013-04-30 10:10:00,64.5,55.3,30.01,SSW,194,0.0,12.0,72,0.00,,CLR,0.00,VWS V14.00,2013-04-30 14:10:00,
2013-04-30 10:15:00,64.3,54.3,30.01,SW,218,5.0,17.0,70,0.00,,CLR,0.00,VWS V14.00,2013-04-30 14:15:00,
2013-04-30 10:20:00,64.4,55.6,30.02,SSW,211,9.0,9.0,73,0.00,,CLR,0.00,VWS V14.00,2013-04-30 14:20:00,
2013-04-30 10:25:00,64.5,55.3,30.02,South,189,4.0,11.0,72,0.00,,CLR,0.00,VWS V14.00,2013-04-30 14:25:00,
2013-04-30 10:30:00,64.7,55.5,30.02,South,183,0.0,7.0,72,0.00,,CLR,0.00,VWS V14.00,2013-04-30 14:30:00,
2013-04-30 10:35:00,64.7,55.1,30.02,South,181,0.0,13.0,71,0.00,,CLR,0.00,VWS V14.00,2013-04-30 14:35:00,
2013-04-30 10:40:00,64.9,55.7,30.02,SSW,211,0.0,6.0,72,0.00,,CLR,0.00,VWS V14.00,2013-04-30 14:40:00,
2013-04-30 10:45:00,65.3,56.4,30.03,SW,215,1.0,10.0,73,0.00,,CLR,0.00,VWS V14.00,2013-04-30 14:45:00,
2013-04-30 10:50:00,65.5,55.9,30.02,South,182,0.0,3.0,71,0.00,,CLR,0.00,VWS V14.00,2013-04-30 14:50:00,
2013-04-30 10:55:00,65.6,56.0,30.02,SSE,155,0.0,14.0,71,0.00,,CLR,0.00,VWS V14.00,2013-04-30 14:55:00,
2013-04-30 11:00:00,65.9,57.0,30.01,SSE,147,0.0,1.0,73,0.00,,FEW024,0.00,VWS V14.00,2013-04-30 15:00:00,
2013-04-30 11:05:00,66.2,55.7,30.02,SSE,165,5.0,11.0,69,0.00,,FEW024,0.00,VWS V14.00,2013-04-30 15:05:00,
2013-04-30 11:10:00,66.3,56.2,30.02,South,182,0.0,9.0,70,0.00,,FEW024,0.00,VWS V14.00,2013-04-30 15:10:00,
2013-04-30 11:15:00,66.4,56.3,30.02,SSW,200,5.0,9.0,70,0.00,,FEW024,0.00,VWS V14.00,2013-04-30 15:15:00,
2013-04-30 11:20:00,66.6,56.5,30.03,South,186,6.0,13.0,70,0.00,,FEW024,0.00,VWS V14.00,2013-04-30 15:20:00,
2013-04-30 11:25:00,66.5,55.6,30.03,SSE,160,0.0,13.0,68,0.00,,FEW024,0.00,VWS V14.00,2013-04-30 15:25:00,
2013-04-30 11:30:00,66.4,55.5,30.03,SSW,192,0.0,6.0,68,0.00,,FEW024,0.00,VWS V14.00,2013-04-30 15:30:00,
2013-04-30 11:35:00,66.5,55.6,30.03,SSE,153,1.0,7.0,68,0.00,,FEW024,0.00,VWS V14.00,2013-04-30 15:35:00,
2013-04-30 11:40:00,66.4,55.1,30.03,SE,142,6.0,10.0,67,0.00,,FEW024,0.00,VWS V14.00,2013-04-30 15:40:00,
2013-04-30 11:45:00,66.5,55.6,30.04,SSW,197,0.0,10.0,68,0.00,,FEW024,0.00,VWS V14.00,2013-04-30 15:45:00,
2013-04-30 11:50:00,66.5,55.2,30.04,SSE,150,0.0,9.0,67,0.00,,FEW024,0.00,VWS V14.00,2013-04-30 15:50:00,
2013-04-30 11:55:00,66.7,56.2,30.04,SSE,147,3.0,9.0,69,0.00,,FEW024,0.00,VWS V14.00,2013-04-30 15:55:00,
2013-04-30 12:00:00,66.7,55.8,30.04,East,86,0.0,10.0,68,0.00,,CLR,0.00,VWS V14.00,2013-04-30 16:00:00,
2013-04-30 12:05:00,66.8,56.3,30.04,SSW,199,4.0,10.0,69,0.00,,CLR,0.00,VWS V14.00,2013-04-30 16:05:00,
2013-04-30 12:10:00,66.8,55.1,30.04,SE,141,0.0,4.0,66,0.00,,CLR,0.00,VWS V14.00,2013-04-30 16:10:00,
2013-04-30 12:15:00,66.9,55.2,30.04,SE,138,0.0,9.0,66,0.00,,CLR,0.00,VWS V14.00,2013-04-30 16:15:00,
2013-04-30 12:20:00,67.0,55.3,30.03,SSE,148,0.0,3.0,66,0.00,,CLR,0.00,VWS V14.00,2013-04-30 16:20:00,
2013-04-30 12:25:00,67.0,55.3,30.03,SSE,148,0.0,10.0,66,0.00,,CLR,0.00,VWS V14.00,2013-04-30 16:25:00,
2013-04-30 12:30:00,67.1,55.4,30.03,SSE,152,0.0,6.0,66,0.00,,CLR,0.00,VWS V14.00,2013-04-30 16:30:00,
2013-04-30 12:35:00,67.2,55.9,30.03,SE,133,2.0,6.0,67,0.00,,CLR,0.00,VWS V14.00,2013-04-30 16:35:00,
2013-04-30 12:40:00,67.4,56.1,30.03,SSE,153,0.0,5.0,67,0.00,,CLR,0.00,VWS V14.00,2013-04-30 16:40:00,
2013-04-30 12:45:00,67.8,56.5,30.02,SE,131,4.0,9.0,67,0.00,,CLR,0.00,VWS V14.00,2013-04-30 16:45:00,
2013-04-30 12:50:00,68.0,56.7,30.02,SE,130,6.0,8.0,67,0.00,,CLR,0.00,VWS V14.00,2013-04-30 16:50:00,
2013-04-30 12:55:00,68.1,56.3,30.02,SE,140,4.0,11.0,66,0.00,,CLR,0.00,VWS V14.00,2013-04-30 16:55:00,
2013-04-30 13:00:00,68.2,56.4,30.02,SSE,150,0.0,7.0,66,0.00,,CLR,0.00,VWS V14.00,2013-04-30 17:00:00,
2013-04-30 13:05:00,68.5,57.1,30.02,SSE,158,0.0,9.0,67,0.00,,CLR,0.00,VWS V14.00,2013-04-30 17:05:00,
2013-04-30 13:10:00,68.9,57.1,30.02,ESE,123,6.0,10.0,66,0.00,,CLR,0.00,VWS V14.00,2013-04-30 17:10:00,
2013-04-30 13:15:00,68.9,56.7,30.01,SSE,157,2.0,11.0,65,0.00,,CLR,0.00,VWS V14.00,2013-04-30 17:15:00,
2013-04-30 13:20:00,68.9,56.7,30.01,SSE,161,7.0,10.0,65,0.00,,CLR,0.00,VWS V14.00,2013-04-30 17:20:00,
2013-04-30 13:25:00,68.8,56.6,30.00,SE,141,4.0,13.0,65,0.00,,CLR,0.00,VWS V14.00,2013-04-30 17:25:00,
2013-04-30 13:30:00,69.0,56.8,30.00,SE,140,10.0,10.0,65,0.00,,CLR,0.00,VWS V14.00,2013-04-30 17:30:00,
2013-04-30 13:35:00,69.3,56.6,30.00,SSE,159,2.0,11.0,64,0.00,,CLR,0.00,VWS V14.00,2013-04-30 17:35:00,
2013-04-30 13:40:00,69.6,56.9,30.00,South,179,2.0,13.0,64,0.00,,CLR,0.00,VWS V14.00,2013-04-30 17:40:00,
2013-04-30 13:45:00,69.7,56.1,29.99,SSE,152,0.0,13.0,62,0.00,,CLR,0.00,VWS V14.00,2013-04-30 17:45:00,
2013-04-30 13:50:00,70.0,57.3,29.99,ESE,118,4.0,5.0,64,0.00,,CLR,0.00,VWS V14.00,2013-04-30 17:50:00,
2013-04-30 13:55:00,70.5,57.8,29.99,SE,136,6.0,10.0,64,0.00,,CLR,0.00,VWS V14.00,2013-04-30 17:55:00,
2013-04-30 14:00:00,71.0,58.2,29.98,SE,134,7.0,7.0,64,0.00,,CLR,0.00,VWS V14.00,2013-04-30 18:00:00,
2013-04-30 14:05:00,71.6,58.3,29.99,SE,146,7.0,10.0,63,0.00,,CLR,0.00,VWS V14.00,2013-04-30 18:05:00,
2013-04-30 14:10:00,71.9,57.3,30.00,SSE,165,4.0,12.0,60,0.00,,CLR,0.00,VWS V14.00,2013-04-30 18:10:00,
2013-04-30 14:15:00,72.1,57.5,30.00,SSE,165,5.0,14.0,60,0.00,,CLR,0.00,VWS V14.00,2013-04-30 18:15:00,
2013-04-30 14:20:00,72.4,57.3,30.00,SSE,163,0.0,5.0,59,0.00,,CLR,0.00,VWS V14.00,2013-04-30 18:20:00,
2013-04-30 14:25:00,72.5,58.3,30.00,SE,143,4.0,13.0,61,0.00,,CLR,0.00,VWS V14.00,2013-04-30 18:25:00,
2013-04-30 14:30:00,72.8,57.7,30.00,SE,129,1.0,7.0,59,0.00,,CLR,0.00,VWS V14.00,2013-04-30 18:30:00,
2013-04-30 14:35:00,73.1,57.5,30.00,SSE,150,0.0,11.0,58,0.00,,CLR,0.00,VWS V14.00,2013-04-30 18:35:00,
2013-04-30 14:40:00,73.3,57.7,29.99,South,182,4.0,6.0,58,0.00,,CLR,0.00,VWS V14.00,2013-04-30 18:40:00,
2013-04-30 14:45:00,73.4,58.2,29.99,SSE,166,1.0,10.0,59,0.00,,CLR,0.00,VWS V14.00,2013-04-30 18:45:00,
2013-04-30 14:50:00,73.6,58.4,29.99,SE,135,6.0,10.0,59,0.00,,CLR,0.00,VWS V14.00,2013-04-30 18:50:00,
2013-04-30 14:55:00,73.4,57.7,29.99,SSE,159,4.0,11.0,58,0.00,,CLR,0.00,VWS V14.00,2013-04-30 18:55:00,
2013-04-30 15:00:00,73.3,57.7,29.99,South,182,0.0,7.0,58,0.00,,CLR,0.00,VWS V14.00,2013-04-30 19:00:00,
2013-04-30 15:05:00,73.1,57.5,29.98,SE,129,0.0,11.0,58,0.00,,CLR,0.00,VWS V14.00,2013-04-30 19:05:00,
2013-04-30 15:10:00,73.2,58.5,29.98,SE,144,1.0,6.0,60,0.00,,CLR,0.00,VWS V14.00,2013-04-30 19:10:00,
2013-04-30 15:15:00,73.6,58.9,29.98,South,183,2.0,14.0,60,0.00,,CLR,0.00,VWS V14.00,2013-04-30 19:15:00,
2013-04-30 15:20:00,73.8,58.1,29.98,SSE,154,4.0,6.0,58,0.00,,CLR,0.00,VWS V14.00,2013-04-30 19:20:00,
2013-04-30 15:25:00,73.7,58.5,29.98,SSE,150,10.0,11.0,59,0.00,,CLR,0.00,VWS V14.00,2013-04-30 19:25:00,
2013-04-30 15:30:00,73.5,57.8,29.98,SSW,194,3.0,9.0,58,0.00,,CLR,0.00,VWS V14.00,2013-04-30 19:30:00,
2013-04-30 15:35:00,73.6,57.9,29.98,South,187,5.0,10.0,58,0.00,,CLR,0.00,VWS V14.00,2013-04-30 19:35:00,
2013-04-30 15:40:00,73.9,57.7,29.98,SE,133,6.0,10.0,57,0.00,,CLR,0.00,VWS V14.00,2013-04-30 19:40:00,
2013-04-30 15:45:00,73.9,57.2,29.97,SSE,155,0.0,10.0,56,0.00,,CLR,0.00,VWS V14.00,2013-04-30 19:45:00,
2013-04-30 15:50:00,73.8,57.6,29.97,SE,139,7.0,7.0,57,0.00,,CLR,0.00,VWS V14.00,2013-04-30 19:50:00,
2013-04-30 15:55:00,73.8,57.1,29.97,South,176,0.0,11.0,56,0.00,,CLR,0.00,VWS V14.00,2013-04-30 19:55:00,
2013-04-30 16:00:00,73.8,57.6,29.97,SSE,148,6.0,11.0,57,0.00,,CLR,0.00,VWS V14.00,2013-04-30 20:00:00,
2013-04-30 16:05:00,73.7,57.5,29.97,South,169,4.0,11.0,57,0.00,,CLR,0.00,VWS V14.00,2013-04-30 20:05:00,
2013-04-30 16:10:00,73.6,57.0,29.97,South,179,0.0,4.0,56,0.00,,CLR,0.00,VWS V14.00,2013-04-30 20:10:00,
2013-04-30 16:15:00,73.5,56.4,29.97,South,186,5.0,12.0,55,0.00,,CLR,0.00,VWS V14.00,2013-04-30 20:15:00,
2013-04-30 16:20:00,73.2,56.1,29.97,SE,143,6.0,9.0,55,0.00,,CLR,0.00,VWS V14.00,2013-04-30 20:20:00,
2013-04-30 16:25:00,73.1,57.0,29.97,SE,126,7.0,10.0,57,0.00,,CLR,0.00,VWS V14.00,2013-04-30 20:25:00,
2013-04-30 16:30:00,73.2,57.1,29.96,SE,140,0.0,5.0,57,0.00,,CLR,0.00,VWS V14.00,2013-04-30 20:30:00,
2013-04-30 16:35:00,73.3,57.2,29.96,ESE,109,7.0,12.0,57,0.00,,CLR,0.00,VWS V14.00,2013-04-30 20:35:00,
2013-04-30 16:40:00,73.5,57.3,29.96,SSE,152,5.0,11.0,57,0.00,,CLR,0.00,VWS V14.00,2013-04-30 20:40:00,
2013-04-30 16:45:00,73.8,58.1,29.96,SE,132,0.0,11.0,58,0.00,,CLR,0.00,VWS V14.00,2013-04-30 20:45:00,
2013-04-30 16:50:00,74.0,57.8,29.96,SE,133,9.0,9.0,57,0.00,,CLR,0.00,VWS V14.00,2013-04-30 20:50:00,
2013-04-30 16:55:00,74.3,57.6,29.96,SSW,196,0.0,9.0,56,0.00,,CLR,0.00,VWS V14.00,2013-04-30 20:55:00,
2013-04-30 17:00:00,74.4,56.7,29.96,SE,142,1.0,4.0,54,0.00,,CLR,0.00,VWS V14.00,2013-04-30 21:00:00,
2013-04-30 17:05:00,74.3,57.6,29.96,South,188,0.0,16.0,56,0.00,,CLR,0.00,VWS V14.00,2013-04-30 21:05:00,
2013-04-30 17:10:00,74.2,57.0,29.96,SE,144,0.0,9.0,55,0.00,,CLR,0.00,VWS V14.00,2013-04-30 21:10:00,
2013-04-30 17:15:00,74.0,56.8,29.95,SE,140,0.0,14.0,55,0.00,,CLR,0.00,VWS V14.00,2013-04-30 21:15:00,
2013-04-30 17:20:00,73.6,57.0,29.95,SW,232,2.0,7.0,56,0.00,,CLR,0.00,VWS V14.00,2013-04-30 21:20:00,
2013-04-30 17:25:00,73.5,56.9,29.95,SSE,150,1.0,11.0,56,0.00,,CLR,0.00,VWS V14.00,2013-04-30 21:25:00,
2013-04-30 17:30:00,73.7,57.5,29.95,SSE,152,1.0,7.0,57,0.00,,CLR,0.00,VWS V14.00,2013-04-30 21:30:00,
2013-04-30 17:35:00,73.8,56.6,29.95,SSE,148,0.0,8.0,55,0.00,,CLR,0.00,VWS V14.00,2013-04-30 21:35:00,
2013-04-30 17:40:00,73.5,56.4,29.96,SW,217,0.0,3.0,55,0.00,,CLR,0.00,VWS V14.00,2013-04-30 21:40:00,
2013-04-30 17:45:00,73.4,56.8,29.96,SW,221,5.0,7.0,56,0.00,,CLR,0.00,VWS V14.00,2013-04-30 21:45:00,
2013-04-30 17:50:00,73.3,56.7,29.96,SE,143,0.0,10.0,56,0.00,,CLR,0.00,VWS V14.00,2013-04-30 21:50:00,
2013-04-30 17:55:00,73.1,56.0,29.96,SE,132,2.0,10.0,55,0.00,,CLR,0.00,VWS V14.00,2013-04-30 21:55:00,
2013-04-30 18:00:00,72.8,55.7,29.96,East,95,4.0,9.0,55,0.00,,CLR,0.00,VWS V14.00,2013-04-30 22:00:00,
2013-04-30 18:05:00,72.5,56.4,29.96,SSE,150,0.0,10.0,57,0.00,,CLR,0.00,VWS V14.00,2013-04-30 22:05:00,
2013-04-30 18:10:00,72.4,56.8,29.96,SE,146,0.0,2.0,58,0.00,,CLR,0.00,VWS V14.00,2013-04-30 22:10:00,
2013-04-30 18:15:00,72.3,56.2,29.97,SW,214,2.0,7.0,57,0.00,,CLR,0.00,VWS V14.00,2013-04-30 22:15:00,
2013-04-30 18:20:00,72.2,55.7,29.96,SSE,148,2.0,2.0,56,0.00,,CLR,0.00,VWS V14.00,2013-04-30 22:20:00,
2013-04-30 18:25:00,72.1,56.0,29.96,SE,131,0.0,9.0,57,0.00,,CLR,0.00,VWS V14.00,2013-04-30 22:25:00,
2013-04-30 18:30:00,72.0,56.0,29.97,South,175,1.0,9.0,57,0.00,,CLR,0.00,VWS V14.00,2013-04-30 22:30:00,
2013-04-30 18:35:00,72.0,56.0,29.97,SSE,148,6.0,9.0,57,0.00,,CLR,0.00,VWS V14.00,2013-04-30 22:35:00,
2013-04-30 18:40:00,72.1,56.0,29.97,South,172,0.0,3.0,57,0.00,,CLR,0.00,VWS V14.00,2013-04-30 22:40:00,
2013-04-30 18:45:00,72.1,55.6,29.97,SSE,164,3.0,9.0,56,0.00,,CLR,0.00,VWS V14.00,2013-04-30 22:45:00,
2013-04-30 18:50:00,72.4,56.3,29.97,SSE,150,2.0,4.0,57,0.00,,CLR,0.00,VWS V14.00,2013-04-30 22:50:00,
2013-04-30 18:55:00,72.9,56.3,29.97,South,180,0.0,9.0,56,0.00,,CLR,0.00,VWS V14.00,2013-04-30 22:55:00,
2013-04-30 19:00:00,73.1,56.5,29.97,SSE,166,0.0,0.0,56,0.00,,CLR,0.00,VWS V14.00,2013-04-30 23:00:00,
2013-04-30 19:05:00,73.1,55.5,29.97,SE,137,3.0,12.0,54,0.00,,CLR,0.00,VWS V14.00,2013-04-30 23:05:00,
2013-04-30 19:10:00,72.9,55.8,29.97,South,185,0.0,3.0,55,0.00,,CLR,0.00,VWS V14.00,2013-04-30 23:10:00,
2013-04-30 19:15:00,72.5,55.9,29.97,SSE,154,2.0,6.0,56,0.00,,CLR,0.00,VWS V14.00,2013-04-30 23:15:00,
2013-04-30 19:20:00,72.3,55.2,29.97,SSW,202,0.0,4.0,55,0.00,,CLR,0.00,VWS V14.00,2013-04-30 23:20:00,
2013-04-30 19:25:00,72.2,55.7,29.97,SE,133,2.0,4.0,56,0.00,,CLR,0.00,VWS V14.00,2013-04-30 23:25:00,
2013-04-30 19:30:00,72.1,55.6,29.98,SSE,163,4.0,5.0,56,0.00,,CLR,0.00,VWS V14.00,2013-04-30 23:30:00,
2013-04-30 19:35:00,71.9,55.9,29.98,SSW,203,0.0,5.0,57,0.00,,CLR,0.00,VWS V14.00,2013-04-30 23:35:00,
2013-04-30 19:40:00,71.6,55.6,29.98,SSW,197,0.0,3.0,57,0.00,,CLR,0.00,VWS V14.00,2013-04-30 23:40:00,
2013-04-30 19:45:00,71.3,55.3,29.98,South,180,0.0,10.0,57,0.00,,CLR,0.00,VWS V14.00,2013-04-30 23:45:00,
2013-04-30 19:50:00,71.1,55.1,29.98,SSE,156,1.0,1.0,57,0.00,,CLR,0.00,VWS V14.00,2013-04-30 23:50:00,
2013-04-30 19:55:00,71.0,55.5,29.98,South,175,0.0,7.0,58,0.00,,CLR,0.00,VWS V14.00,2013-04-30 23:55:00,
2013-04-30 19:59:00,70.7,55.7,29.98,ESE,123,0.0,1.0,59,0.00,,CLR,0.00,VWS V14.00,2013-04-30 23:59:00,
2013-04-30 20:04:00,70.3,55.3,29.98,SE,124,0.0,7.0,59,0.00,,CLR,0.00,VWS V14.00,2013-05-01 00:04:00,
2013-04-30 20:09:00,70.0,55.5,29.98,SE,142,0.0,1.0,60,0.00,,CLR,0.00,VWS V14.00,2013-05-01 00:09:00,
2013-04-30 20:14:00,69.7,55.7,29.99,SE,133,0.0,5.0,61,0.00,,CLR,0.00,VWS V14.00,2013-05-01 00:14:00,
2013-04-30 20:19:00,69.4,55.4,29.99,SW,232,0.0,4.0,61,0.00,,CLR,0.00,VWS V14.00,2013-05-01 00:19:00,
2013-04-30 20:24:00,69.1,55.5,29.99,SSE,161,0.0,4.0,62,0.00,,CLR,0.00,VWS V14.00,2013-05-01 00:24:00,
2013-04-30 20:29:00,68.7,55.2,29.99,SW,229,0.0,0.0,62,0.00,,CLR,0.00,VWS V14.00,2013-05-01 00:29:00,
2013-04-30 20:34:00,68.3,55.2,30.00,SSE,161,0.0,6.0,63,0.00,,CLR,0.00,VWS V14.00,2013-05-01 00:34:00,
2013-04-30 20:39:00,68.0,55.0,30.00,SSE,161,0.0,0.0,63,0.00,,CLR,0.00,VWS V14.00,2013-05-01 00:39:00,
2013-04-30 20:44:00,67.8,55.2,30.00,SSE,160,1.0,2.0,64,0.00,,CLR,0.00,VWS V14.00,2013-05-01 00:44:00,
2013-04-30 20:49:00,67.5,54.9,30.00,SSE,161,0.0,1.0,64,0.00,,CLR,0.00,VWS V14.00,2013-05-01 00:49:00,
2013-04-30 20:54:00,67.3,55.2,30.00,SSE,160,0.0,1.0,65,0.00,,CLR,0.00,VWS V14.00,2013-05-01 00:54:00,
2013-04-30 20:59:00,67.0,54.9,30.01,SSE,155,0.0,0.0,65,0.00,,CLR,0.00,VWS V14.00,2013-05-01 00:59:00,
2013-04-30 21:04:00,66.7,55.0,30.01,SSE,155,0.0,1.0,66,0.00,,CLR,0.00,VWS V14.00,2013-05-01 01:04:00,
2013-04-30 21:09:00,66.4,55.1,30.01,SSE,155,0.0,0.0,67,0.00,,CLR,0.00,VWS V14.00,2013-05-01 01:09:00,
2013-04-30 21:14:00,66.2,54.9,30.01,SSE,155,0.0,2.0,67,0.00,,CLR,0.00,VWS V14.00,2013-05-01 01:14:00,
2013-04-30 21:19:00,65.9,55.0,30.01,SSE,155,0.0,0.0,68,0.00,,CLR,0.00,VWS V14.00,2013-05-01 01:19:00,
2013-04-30 21:24:00,65.7,54.9,30.01,SSE,155,0.0,2.0,68,0.00,,CLR,0.00,VWS V14.00,2013-05-01 01:24:00,
2013-04-30 21:29:00,65.5,54.7,30.02,SSE,155,0.0,0.0,68,0.00,,CLR,0.00,VWS V14.00,2013-05-01 01:29:00,
2013-04-30 21:34:00,65.2,54.8,30.01,SSE,155,0.0,0.0,69,0.00,,CLR,0.00,VWS V14.00,2013-05-01 01:34:00,
2013-04-30 21:39:00,64.9,54.9,30.01,SSE,155,0.0,1.0,70,0.00,,CLR,0.00,VWS V14.00,2013-05-01 01:39:00,
2013-04-30 21:44:00,64.7,54.7,30.01,SSE,155,0.0,1.0,70,0.00,,CLR,0.00,VWS V14.00,2013-05-01 01:44:00,
2013-04-30 21:49:00,64.5,54.9,30.01,SSE,155,0.0,0.0,71,0.00,,CLR,0.00,VWS V14.00,2013-05-01 01:49:00,
2013-04-30 21:54:00,64.3,54.7,30.02,SSE,155,0.0,1.0,71,0.00,,CLR,0.00,VWS V14.00,2013-05-01 01:54:00,
2013-04-30 21:59:00,64.2,54.6,30.02,SSE,155,0.0,0.0,71,0.00,,CLR,0.00,VWS V14.00,2013-05-01 01:59:00,
2013-04-30 22:04:00,64.0,54.8,30.02,SSE,155,0.0,0.0,72,0.00,,CLR,0.00,VWS V14.00,2013-05-01 02:04:00,
2013-04-30 22:09:00,63.8,54.6,30.02,SSE,159,0.0,0.0,72,0.00,,CLR,0.00,VWS V14.00,2013-05-01 02:09:00,
2013-04-30 22:14:00,63.6,54.4,30.02,SSE,159,0.0,1.0,72,0.00,,CLR,0.00,VWS V14.00,2013-05-01 02:14:00,
2013-04-30 22:19:00,63.5,54.7,30.03,SSE,159,0.0,0.0,73,0.00,,CLR,0.00,VWS V14.00,2013-05-01 02:19:00,
2013-04-30 22:24:00,63.3,54.5,30.03,SSE,159,0.0,0.0,73,0.00,,CLR,0.00,VWS V14.00,2013-05-01 02:24:00,
2013-04-30 22:29:00,63.2,54.4,30.03,SSE,159,0.0,0.0,73,0.00,,CLR,0.00,VWS V14.00,2013-05-01 02:29:00,
2013-04-30 22:34:00,63.1,54.3,30.03,SSE,160,0.0,1.0,73,0.00,,CLR,0.00,VWS V14.00,2013-05-01 02:34:00,
2013-04-30 22:39:00,63.1,54.7,30.03,SSE,159,0.0,1.0,74,0.00,,CLR,0.00,VWS V14.00,2013-05-01 02:39:00,
2013-04-30 22:44:00,62.9,54.5,30.03,SSE,159,0.0,2.0,74,0.00,,CLR,0.00,VWS V14.00,2013-05-01 02:44:00,
2013-04-30 22:49:00,62.8,54.8,30.03,SSE,159,0.0,0.0,75,0.00,,CLR,0.00,VWS V14.00,2013-05-01 02:49:00,
2013-04-30 22:54:00,62.7,54.7,30.03,SSE,159,1.0,2.0,75,0.00,,CLR,0.00,VWS V14.00,2013-05-01 02:54:00,
2013-04-30 22:59:00,62.6,54.6,30.03,SSE,159,0.0,0.0,75,0.00,,CLR,0.00,VWS V14.00,2013-05-01 02:59:00,
2013-04-30 23:04:00,62.5,54.5,30.03,SSE,159,0.0,0.0,75,0.00,,CLR,0.00,VWS V14.00,2013-05-01 03:04:00,
2013-04-30 23:09:00,62.5,54.8,30.03,SSE,159,0.0,0.0,76,0.00,,CLR,0.00,VWS V14.00,2013-05-01 03:09:00,
2013-04-30 23:14:00,62.4,54.8,30.03,SSE,159,0.0,1.0,76,0.00,,CLR,0.00,VWS V14.00,2013-05-01 03:14:00,
2013-04-30 23:19:00,62.3,54.7,30.03,SSE,159,0.0,0.0,76,0.00,,CLR,0.00,VWS V14.00,2013-05-01 03:19:00,
2013-04-30 23:24:00,62.2,54.9,30.03,SSE,159,2.0,3.0,77,0.00,,CLR,0.00,VWS V14.00,2013-05-01 03:24:00,
2013-04-30 23:29:00,62.1,54.8,30.03,SSE,159,0.0,0.0,77,0.00,,CLR,0.00,VWS V14.00,2013-05-01 03:29:00,
2013-04-30 23:34:00,62.0,54.7,30.03,SSE,159,0.0,1.0,77,0.00,,CLR,0.00,VWS V14.00,2013-05-01 03:34:00,
2013-04-30 23:39:00,61.9,54.6,30.03,SSE,159,0.0,0.0,77,0.00,,CLR,0.00,VWS V14.00,2013-05-01 03:39:00,
2013-04-30 23:44:00,61.9,54.6,30.03,SSE,159,0.0,0.0,77,0.00,,CLR,0.00,VWS V14.00,2013-05-01 03:44:00,
2013-04-30 23:49:00,61.9,54.6,30.03,SSE,159,0.0,0.0,77,0.00,,CLR,0.00,VWS V14.00,2013-05-01 03:49:00,
2013-04-30 23:54:00,61.9,54.6,30.03,SSE,159,0.0,1.0,77,0.00,,CLR,0.00,VWS V14.00,2013-05-01 03:54:00,